| time (UTC) | temp C | wind direction | speed KPH | gust KPH | rain 1hr cm | rain 24hr cm | rain mn cm | humidity % | barometer mb |
| 20260509004217 | 17 | 335 | 6.4 | 9.7 | 0.48 | 0.69 | 0.69 | 92 | 1020.8 |
| 20260509003715 | 17 | 318 | 4.8 | 14.5 | 0.71 | 0.66 | 0.66 | 92 | 1020.7 |
| 20260509003213 | 17 | 264 | 4.8 | 12.9 | 0.66 | 0.58 | 0.58 | 92 | 1020.8 |
| 20260509002709 | 17 | 89 | 0.0 | 6.4 | 0.79 | 0.53 | 0.53 | 92 | 1020.6 |
| 20260509002207 | 17 | 335 | 1.6 | 6.4 | 1.02 | 0.48 | 0.48 | 91 | 1020.7 |
| 20260509001704 | 17 | 271 | 1.6 | 9.7 | 1.02 | 0.38 | 0.38 | 91 | 1020.6 |
| 20260509001200 | 17 | 301 | 3.2 | 4.8 | 1.37 | 0.30 | 0.30 | 91 | 1020.8 |
| 20260509000659 | 17 | 7 | 6.4 | 11.3 | 0.79 | 0.18 | 0.18 | 90 | 1020.7 |
| 20260509000155 | 17 | 298 | 6.4 | 9.7 | 0.00 | 0.05 | 0.05 | 90 | 1020.8 |
| 20260508235652 | 17 | 312 | 3.2 | 9.7 | 0.00 | 0.05 | 0.05 | 90 | 1020.8 |
| 20260508235148 | 17 | 275 | 1.6 | 6.4 | 0.00 | 0.05 | 0.05 | 90 | 1020.6 |
| 20260508234646 | 17 | 254 | 8.0 | 16.1 | 0.00 | 0.05 | 0.05 | 90 | 1020.3 |
| 20260508234142 | 17 | 308 | 1.6 | 9.7 | 0.00 | 0.05 | 0.05 | 89 | 1020.1 |
| 20260508233642 | 17 | 296 | 9.7 | 12.9 | 0.00 | 0.05 | 0.05 | 89 | 1020.1 |
| 20260508233139 | 17 | 316 | 4.8 | 12.9 | 0.00 | 0.05 | 0.05 | 89 | 1019.9 |
| 20260508232636 | 17 | 272 | 4.8 | 12.9 | 0.13 | 0.05 | 0.05 | 88 | 1019.8 |
| 20260508232133 | 17 | 284 | 6.4 | 14.5 | 0.00 | 0.03 | 0.03 | 87 | 1019.8 |
| 20260508231631 | 17 | 159 | 6.4 | 17.7 | 0.00 | 0.03 | 0.03 | 86 | 1019.9 |
| 20260508231127 | 18 | 296 | 14.5 | 20.9 | 0.00 | 0.03 | 0.03 | 84 | 1019.9 |
| 20260508230624 | 18 | 271 | 4.8 | 14.5 | 0.00 | 0.03 | 0.03 | 83 | 1020.0 |
| 20260508230120 | 18 | 340 | 9.7 | 14.5 | 0.00 | 0.03 | 0.03 | 82 | 1019.9 |
| 20260508225619 | 18 | 323 | 14.5 | 16.1 | 0.00 | 0.03 | 0.03 | 82 | 1020.0 |
| 20260508225114 | 18 | 299 | 9.7 | 17.7 | 0.00 | 0.03 | 0.03 | 82 | 1020.1 |
| 20260508224612 | 18 | 279 | 3.2 | 17.7 | 0.00 | 0.03 | 0.03 | 82 | 1019.9 |
| 20260508224110 | 18 | 251 | 8.0 | 20.9 | 0.00 | 0.03 | 0.03 | 82 | 1020.0 |
| 20260508223608 | 18 | 310 | 6.4 | 20.9 | 0.00 | 0.03 | 0.03 | 83 | 1020.1 |
| 20260508223104 | 18 | 335 | 9.7 | 22.5 | 0.00 | 0.03 | 0.03 | 84 | 1019.9 |
| 20260508222601 | 18 | 294 | 3.2 | 17.7 | 0.00 | 0.03 | 0.03 | 85 | 1019.6 |
| 20260508222059 | 18 | 309 | 8.0 | 12.9 | 0.00 | 0.03 | 0.03 | 86 | 1019.7 |
| 20260508221555 | 18 | 26 | 8.0 | 16.1 | 0.00 | 0.03 | 0.03 | 87 | 1019.6 |
| 20260508221050 | 18 | 306 | 11.3 | 16.1 | 0.00 | 0.03 | 0.03 | 89 | 1019.5 |
| 20260508220547 | 18 | 1 | 4.8 | 11.3 | 0.00 | 0.03 | 0.03 | 90 | 1019.5 |
| 20260508220043 | 18 | 349 | 3.2 | 12.9 | 0.00 | 0.03 | 0.03 | 90 | 1019.6 |
| 20260508215541 | 18 | 53 | 4.8 | 16.1 | 0.00 | 0.03 | 0.03 | 91 | 1019.6 |
| 20260508215037 | 18 | 315 | 3.2 | 11.3 | 0.00 | 0.03 | 0.03 | 91 | 1019.3 |
| 20260508214535 | 18 | 343 | 4.8 | 14.5 | 0.00 | 0.03 | 0.03 | 91 | 1019.5 |
| 20260508214031 | 18 | 282 | 8.0 | 16.1 | 0.00 | 0.03 | 0.03 | 91 | 1019.1 |
| 20260508213529 | 18 | 270 | 3.2 | 4.8 | 0.00 | 0.03 | 0.03 | 92 | 1019.0 |
| 20260508213024 | 18 | 21 | 0.0 | 6.4 | 0.00 | 0.03 | 0.03 | 91 | 1019.0 |
| 20260508212521 | 18 | 331 | 6.4 | 12.9 | 0.00 | 0.03 | 0.03 | 92 | 1019.0 |
| 20260508212017 | 18 | 318 | 6.4 | 11.3 | 0.00 | 0.03 | 0.03 | 92 | 1019.2 |
| 20260508211513 | 18 | 2 | 6.4 | 12.9 | 0.00 | 0.03 | 0.03 | 92 | 1018.9 |
| 20260508211010 | 18 | 334 | 14.5 | 20.9 | 0.00 | 0.03 | 0.03 | 92 | 1018.9 |
| 20260508210506 | 19 | 358 | 4.8 | 11.3 | 0.00 | 0.03 | 0.03 | 92 | 1018.7 |
| 20260508210003 | 19 | 287 | 11.3 | 14.5 | 0.00 | 0.03 | 0.03 | 92 | 1018.8 |
| 20260508205500 | 19 | 312 | 8.0 | 12.9 | 0.00 | 0.03 | 0.03 | 92 | 1018.5 |
| 20260508204956 | 20 | 263 | 3.2 | 16.1 | 0.00 | 0.03 | 0.03 | 92 | 1018.6 |
| 20260508204454 | 20 | 303 | 8.0 | 14.5 | 0.00 | 0.03 | 0.03 | 92 | 1018.6 |
| 20260508203949 | 20 | 259 | 3.2 | 4.8 | 0.00 | 0.03 | 0.03 | 92 | 1018.2 |
| 20260508203445 | 20 | 309 | 1.6 | 9.7 | 0.00 | 0.03 | 0.03 | 91 | 1018.2 |
| 20260508202941 | 20 | 48 | 0.0 | 1.6 | 0.00 | 0.03 | 0.03 | 91 | 1018.3 |
| 20260508202438 | 20 | 95 | 0.0 | 0.0 | 0.00 | 0.03 | 0.03 | 91 | 1018.5 |
| 20260508201935 | 20 | 339 | 1.6 | 4.8 | 0.00 | 0.03 | 0.03 | 91 | 1018.1 |
| 20260508201432 | 20 | 39 | 1.6 | 3.2 | 0.00 | 0.03 | 0.03 | 91 | 1018.2 |
| 20260508200929 | 20 | 93 | 0.0 | 3.2 | 0.00 | 0.03 | 0.03 | 91 | 1018.3 |
| 20260508200426 | 20 | 67 | 1.6 | 3.2 | 0.00 | 0.03 | 0.03 | 92 | 1018.4 |
| 20260508195921 | 20 | 345 | 3.2 | 3.2 | 0.00 | 0.03 | 0.03 | 92 | 1018.4 |
| 20260508195418 | 20 | 52 | 0.0 | 3.2 | 0.00 | 0.03 | 0.03 | 92 | 1018.1 |
| 20260508194914 | 20 | 3 | 1.6 | 3.2 | 0.00 | 0.03 | 0.03 | 92 | 1018.3 |
| 20260508194412 | 20 | 64 | 3.2 | 3.2 | 0.00 | 0.03 | 0.03 | 92 | 1018.3 |
| 20260508193908 | 20 | 311 | 4.8 | 6.4 | 0.00 | 0.03 | 0.03 | 92 | 1018.3 |
| 20260508193405 | 20 | 349 | 0.0 | 3.2 | 0.00 | 0.03 | 0.03 | 92 | 1018.3 |
| 20260508192902 | 20 | 347 | 0.0 | 1.6 | 0.00 | 0.03 | 0.03 | 92 | 1018.3 |
| 20260508192358 | 20 | 16 | 0.0 | 4.8 | 0.00 | 0.03 | 0.03 | 92 | 1018.3 |
| 20260508191856 | 20 | 318 | 1.6 | 3.2 | 0.00 | 0.03 | 0.03 | 92 | 1018.1 |
| 20260508191353 | 20 | 73 | 0.0 | 1.6 | 0.00 | 0.03 | 0.03 | 92 | 1018.5 |
| 20260508190850 | 20 | 33 | 4.8 | 6.4 | 0.00 | 0.03 | 0.03 | 92 | 1018.2 |
| 20260508190346 | 20 | 333 | 1.6 | 3.2 | 0.00 | 0.03 | 0.03 | 92 | 1018.2 |
| 20260508185843 | 20 | 7 | 6.4 | 6.4 | 0.00 | 0.03 | 0.03 | 92 | 1018.3 |
| 20260508185340 | 20 | 89 | 0.0 | 6.4 | 0.00 | 0.03 | 0.03 | 92 | 1018.3 |
| 20260508184838 | 20 | 129 | 0.0 | 3.2 | 0.00 | 0.03 | 0.03 | 92 | 1018.2 |
| 20260508184335 | 20 | 271 | 4.8 | 6.4 | 0.00 | 0.03 | 0.03 | 92 | 1018.1 |
| 20260508183831 | 20 | 61 | 3.2 | 11.3 | 0.00 | 0.03 | 0.03 | 92 | 1018.2 |
| 20260508183328 | 20 | 334 | 3.2 | 4.8 | 0.00 | 0.03 | 0.03 | 92 | 1018.3 |
| 20260508182824 | 20 | 338 | 3.2 | 9.7 | 0.00 | 0.03 | 0.03 | 92 | 1018.2 |
| 20260508182321 | 20 | 275 | 1.6 | 3.2 | 0.00 | 0.03 | 0.03 | 93 | 1018.2 |
| 20260508181816 | 20 | 44 | 1.6 | 6.4 | 0.00 | 0.03 | 0.03 | 93 | 1018.3 |
| 20260508181314 | 20 | 61 | 1.6 | 4.8 | 0.00 | 0.03 | 0.03 | 93 | 1018.1 |
| 20260508180810 | 20 | 19 | 1.6 | 3.2 | 0.00 | 0.03 | 0.03 | 93 | 1018.3 |
| 20260508180308 | 20 | 38 | 3.2 | 6.4 | 0.00 | 0.03 | 0.03 | 93 | 1017.9 |
| 20260508175803 | 20 | 19 | 3.2 | 3.2 | 0.00 | 0.03 | 0.03 | 93 | 1018.2 |
| 20260508175300 | 20 | 26 | 1.6 | 6.4 | 0.00 | 0.03 | 0.03 | 93 | 1018.1 |
| 20260508174758 | 20 | 89 | 0.0 | 1.6 | 0.00 | 0.03 | 0.03 | 93 | 1018.3 |
| 20260508174256 | 20 | 77 | 0.0 | 1.6 | 0.00 | 0.03 | 0.03 | 93 | 1018.3 |
| 20260508173752 | 20 | 259 | 4.8 | 6.4 | 0.00 | 0.03 | 0.03 | 93 | 1018.3 |
| 20260508173248 | 20 | 353 | 1.6 | 3.2 | 0.00 | 0.03 | 0.03 | 93 | 1018.3 |
| 20260508172745 | 20 | 0 | 3.2 | 3.2 | 0.00 | 0.03 | 0.03 | 93 | 1018.3 |
| 20260508172242 | 20 | 2 | 1.6 | 9.7 | 0.00 | 0.03 | 0.03 | 93 | 1018.4 |
| 20260508171738 | 20 | 325 | 3.2 | 6.4 | 0.00 | 0.03 | 0.03 | 93 | 1018.4 |
| 20260508171234 | 19 | 90 | 0.0 | 3.2 | 0.00 | 0.03 | 0.03 | 93 | 1018.5 |
| 20260508170731 | 19 | 295 | 3.2 | 6.4 | 0.00 | 0.03 | 0.03 | 93 | 1018.6 |
| 20260508170229 | 19 | 323 | 3.2 | 14.5 | 0.18 | 0.03 | 0.03 | 93 | 1018.6 |
| 20260508165726 | 19 | 239 | 0.0 | 6.4 | 0.18 | 0.03 | 0.03 | 93 | 1018.7 |
| 20260508165223 | 19 | 286 | 6.4 | 6.4 | 0.00 | 0.00 | 0.00 | 93 | 1018.7 |
| 20260508164720 | 19 | 96 | 0.0 | 1.6 | 0.00 | 0.00 | 0.00 | 93 | 1018.7 |
| 20260508164216 | 19 | 86 | 0.0 | 4.8 | 0.00 | 0.00 | 0.00 | 92 | 1018.7 |
| 20260508163714 | 19 | 359 | 0.0 | 0.0 | 0.00 | 0.00 | 0.00 | 92 | 1018.8 |
| 20260508163212 | 19 | 131 | 0.0 | 3.2 | 0.00 | 0.00 | 0.00 | 92 | 1018.8 |
| 20260508162707 | 19 | 295 | 6.4 | 11.3 | 0.00 | 0.00 | 0.00 | 92 | 1018.9 |
| 20260508162204 | 19 | 81 | 0.0 | 6.4 | 0.00 | 0.00 | 0.00 | 92 | 1018.9 |
| 20260508161701 | 20 | 357 | 6.4 | 11.3 | 0.00 | 0.00 | 0.00 | 92 | 1018.8 |
| 20260508161158 | 20 | 64 | 0.0 | 9.7 | 0.00 | 0.00 | 0.00 | 92 | 1018.9 |
| 20260508160657 | 20 | 300 | 3.2 | 9.7 | 0.00 | 0.00 | 0.00 | 92 | 1018.9 |
| 20260508160154 | 20 | 44 | 4.8 | 6.4 | 0.00 | 0.00 | 0.00 | 93 | 1018.7 |
| 20260508155651 | 20 | 349 | 1.6 | 3.2 | 0.00 | 0.00 | 0.00 | 93 | 1018.9 |
| 20260508155148 | 20 | 353 | 6.4 | 9.7 | 0.00 | 0.00 | 0.00 | 93 | 1018.9 |
| 20260508154645 | 20 | 300 | 6.4 | 6.4 | 0.00 | 0.00 | 0.00 | 93 | 1019.1 |
| 20260508154142 | 20 | 279 | 3.2 | 11.3 | 0.00 | 0.00 | 0.00 | 93 | 1019.2 |
| 20260508153638 | 20 | 26 | 3.2 | 6.4 | 0.00 | 0.00 | 0.00 | 93 | 1019.1 |
| 20260508153135 | 20 | 69 | 0.0 | 4.8 | 0.00 | 0.00 | 0.00 | 93 | 1019.0 |
| 20260508152632 | 20 | 297 | 6.4 | 11.3 | 0.00 | 0.00 | 0.00 | 93 | 1019.2 |
| 20260508152127 | 20 | 318 | 4.8 | 12.9 | 0.00 | 0.00 | 0.00 | 93 | 1019.2 |
| 20260508151624 | 20 | 282 | 3.2 | 9.7 | 0.00 | 0.00 | 0.00 | 93 | 1019.1 |
| 20260508151121 | 20 | 314 | 8.0 | 11.3 | 0.00 | 0.00 | 0.00 | 93 | 1019.5 |
| 20260508150618 | 20 | 168 | 0.0 | 9.7 | 0.00 | 0.00 | 0.00 | 92 | 1019.1 |
| 20260508150114 | 20 | 90 | 1.6 | 4.8 | 0.00 | 0.00 | 0.00 | 92 | 1019.4 |
| 20260508145605 | 20 | 348 | 4.8 | 12.9 | 0.00 | 1.50 | 1.50 | 92 | 1019.5 |
| 20260508145102 | 19 | 277 | 4.8 | 12.9 | 0.00 | 1.50 | 1.50 | 92 | 1019.6 |
| 20260508144600 | 19 | 341 | 1.6 | 4.8 | 0.13 | 1.50 | 1.50 | 93 | 1019.6 |
| 20260508144057 | 19 | 357 | 3.2 | 9.7 | 0.00 | 1.47 | 1.47 | 93 | 1019.8 |
| 20260508143554 | 19 | 291 | 6.4 | 11.3 | 0.00 | 1.47 | 1.47 | 93 | 1019.8 |
| 20260508143051 | 20 | 289 | 3.2 | 6.4 | 0.18 | 1.47 | 1.47 | 93 | 1020.0 |
| 20260508142548 | 20 | 282 | 3.2 | 12.9 | 0.13 | 1.45 | 1.45 | 93 | 1020.0 |
| 20260508142044 | 20 | 57 | 1.6 | 3.2 | 0.18 | 1.42 | 1.42 | 93 | 1019.6 |
| 20260508141541 | 19 | 358 | 1.6 | 3.2 | 0.18 | 1.42 | 1.42 | 93 | 1019.7 |
| 20260508141038 | 19 | 116 | 1.6 | 6.4 | 0.00 | 1.40 | 1.40 | 93 | 1019.6 |
| 20260508140536 | 20 | 37 | 1.6 | 6.4 | 0.00 | 1.40 | 1.40 | 93 | 1019.7 |
| 20260508140032 | 20 | 335 | 1.6 | 4.8 | 0.00 | 1.40 | 1.40 | 93 | 1019.7 |
| 20260508135527 | 20 | 233 | 3.2 | 6.4 | 0.00 | 1.40 | 1.40 | 93 | 1019.5 |
| 20260508135024 | 20 | 3 | 3.2 | 6.4 | 0.00 | 1.40 | 1.40 | 93 | 1019.6 |
| 20260508134521 | 20 | 64 | 0.0 | 3.2 | 0.00 | 1.40 | 1.40 | 93 | 1019.6 |
| 20260508134018 | 20 | 228 | 1.6 | 3.2 | 0.00 | 1.40 | 1.40 | 93 | 1019.6 |
| 20260508133515 | 20 | 270 | 0.0 | 1.6 | 0.00 | 1.40 | 1.40 | 93 | 1019.7 |
| 20260508133012 | 20 | 157 | 1.6 | 3.2 | 0.00 | 1.40 | 1.40 | 93 | 1019.7 |
| 20260508132510 | 20 | 254 | 3.2 | 6.4 | 0.00 | 1.40 | 1.40 | 92 | 1019.9 |
| 20260508132006 | 20 | 283 | 6.4 | 9.7 | 0.00 | 1.40 | 1.40 | 92 | 1019.9 |
| 20260508131501 | 20 | 321 | 4.8 | 9.7 | 0.00 | 1.40 | 1.40 | 92 | 1019.7 |
| 20260508130958 | 20 | 299 | 3.2 | 9.7 | 0.00 | 1.40 | 1.40 | 92 | 1019.7 |
| 20260508130456 | 20 | 281 | 9.7 | 14.5 | 0.18 | 1.40 | 1.40 | 92 | 1019.7 |
| 20260508125951 | 20 | 293 | 3.2 | 11.3 | 0.18 | 1.40 | 1.40 | 92 | 1019.7 |
| 20260508125447 | 20 | 330 | 4.8 | 11.3 | 0.00 | 1.37 | 1.37 | 92 | 1020.0 |
| 20260508124945 | 20 | 78 | 0.0 | 1.6 | 0.00 | 1.37 | 1.37 | 92 | 1020.2 |
| 20260508124443 | 20 | 17 | 3.2 | 4.8 | 0.00 | 1.37 | 1.37 | 92 | 1019.9 |
| 20260508123940 | 20 | 246 | 6.4 | 6.4 | 0.00 | 1.37 | 1.37 | 92 | 1020.0 |
| 20260508123439 | 20 | 297 | 1.6 | 11.3 | 0.13 | 1.37 | 1.37 | 92 | 1019.8 |
| 20260508122935 | 20 | 186 | 4.8 | 9.7 | 0.13 | 1.37 | 1.37 | 92 | 1019.8 |
| 20260508122432 | 20 | 290 | 4.8 | 9.7 | 0.00 | 1.35 | 1.35 | 92 | 1019.8 |
| 20260508121929 | 20 | 13 | 0.0 | 0.0 | 0.00 | 1.35 | 1.35 | 92 | 1019.7 |
| 20260508121427 | 20 | 10 | 1.6 | 4.8 | 0.00 | 1.35 | 1.35 | 92 | 1019.5 |
| 20260508120925 | 20 | 314 | 3.2 | 3.2 | 0.00 | 1.35 | 1.35 | 92 | 1019.4 |
| 20260508120422 | 20 | 312 | 4.8 | 6.4 | 0.00 | 1.35 | 1.35 | 92 | 1019.3 |
| 20260508115919 | 20 | 141 | 0.0 | 1.6 | 0.00 | 1.35 | 1.35 | 92 | 1019.1 |
| 20260508115418 | 20 | 27 | 6.4 | 9.7 | 0.00 | 1.35 | 1.35 | 92 | 1018.9 |
| 20260508114914 | 20 | 332 | 6.4 | 14.5 | 0.00 | 1.35 | 1.35 | 92 | 1018.8 |
| 20260508114410 | 20 | 309 | 6.4 | 14.5 | 0.00 | 1.35 | 1.35 | 92 | 1018.9 |
| 20260508113907 | 20 | 1 | 1.6 | 12.9 | 0.00 | 1.35 | 1.35 | 92 | 1018.8 |
| 20260508113405 | 20 | 283 | 4.8 | 6.4 | 0.00 | 1.35 | 1.35 | 92 | 1018.8 |
| 20260508112902 | 20 | 223 | 6.4 | 11.3 | 0.00 | 1.35 | 1.35 | 92 | 1019.0 |
| 20260508112359 | 20 | 352 | 4.8 | 14.5 | 0.18 | 1.35 | 1.35 | 92 | 1018.8 |
| 20260508111855 | 20 | 329 | 4.8 | 6.4 | 0.48 | 1.35 | 1.35 | 92 | 1018.9 |
| 20260508111352 | 20 | 302 | 12.9 | 16.1 | 0.30 | 1.32 | 1.32 | 92 | 1018.5 |
| 20260508110849 | 21 | 345 | 8.0 | 16.1 | 0.18 | 1.30 | 1.30 | 91 | 1018.7 |
| 20260508110347 | 21 | 269 | 6.4 | 11.3 | 0.00 | 1.27 | 1.27 | 91 | 1018.7 |
| 20260508105846 | 21 | 142 | 1.6 | 3.2 | 0.00 | 1.27 | 1.27 | 91 | 1018.8 |
| 20260508105343 | 21 | 273 | 4.8 | 11.3 | 0.00 | 1.27 | 1.27 | 91 | 1018.5 |
| 20260508104840 | 21 | 65 | 0.0 | 3.2 | 0.00 | 1.27 | 1.27 | 91 | 1018.5 |
| 20260508104336 | 21 | 35 | 1.6 | 6.4 | 0.00 | 1.27 | 1.27 | 91 | 1018.2 |
| 20260508103834 | 21 | 298 | 6.4 | 9.7 | 0.00 | 1.27 | 1.27 | 91 | 1018.2 |
| 20260508103331 | 21 | 345 | 3.2 | 4.8 | 0.13 | 1.27 | 1.27 | 91 | 1018.3 |
| 20260508102828 | 21 | 359 | 3.2 | 4.8 | 0.13 | 1.27 | 1.27 | 91 | 1018.1 |
| 20260508102326 | 21 | 351 | 6.4 | 11.3 | 0.00 | 1.24 | 1.24 | 91 | 1017.9 |
| 20260508101823 | 21 | 314 | 3.2 | 6.4 | 0.00 | 1.24 | 1.24 | 91 | 1018.2 |
| 20260508101321 | 21 | 308 | 3.2 | 11.3 | 0.00 | 1.24 | 1.24 | 91 | 1017.8 |
| 20260508100819 | 21 | 291 | 3.2 | 12.9 | 0.18 | 1.24 | 1.24 | 91 | 1017.8 |
| 20260508100317 | 21 | 279 | 9.7 | 11.3 | 0.30 | 1.24 | 1.24 | 91 | 1017.9 |
| 20260508095812 | 21 | 62 | 0.0 | 4.8 | 0.30 | 1.22 | 1.22 | 91 | 1017.9 |
| 20260508095310 | 21 | 234 | 0.0 | 3.2 | 0.18 | 1.19 | 1.19 | 91 | 1018.0 |
| 20260508094806 | 21 | 104 | 0.0 | 1.6 | 0.13 | 1.17 | 1.17 | 91 | 1018.0 |
| 20260508094304 | 21 | 95 | 0.0 | 4.8 | 0.13 | 1.17 | 1.17 | 90 | 1018.0 |
| 20260508093801 | 21 | 64 | 0.0 | 3.2 | 0.00 | 1.14 | 1.14 | 90 | 1017.7 |
| 20260508093258 | 21 | 136 | 1.6 | 3.2 | 0.00 | 1.14 | 1.14 | 90 | 1017.6 |
| 20260508092754 | 21 | 59 | 1.6 | 11.3 | 0.00 | 1.14 | 1.14 | 90 | 1017.6 |
| 20260508092253 | 21 | 356 | 4.8 | 6.4 | 0.00 | 1.14 | 1.14 | 90 | 1017.3 |
| 20260508091751 | 21 | 25 | 4.8 | 14.5 | 0.18 | 1.14 | 1.14 | 90 | 1017.1 |
| 20260508091247 | 21 | 9 | 3.2 | 4.8 | 0.00 | 1.12 | 1.12 | 91 | 1016.9 |
| 20260508090745 | 21 | 169 | 0.0 | 4.8 | 0.13 | 1.12 | 1.12 | 91 | 1017.0 |
| 20260508090243 | 21 | 11 | 6.4 | 9.7 | 0.13 | 1.12 | 1.12 | 91 | 1016.9 |
| 20260508085738 | 21 | 21 | 3.2 | 4.8 | 0.18 | 1.09 | 1.09 | 91 | 1016.8 |
| 20260508085236 | 21 | 68 | 1.6 | 11.3 | 0.30 | 1.07 | 1.07 | 91 | 1016.6 |
| 20260508084731 | 21 | 330 | 1.6 | 14.5 | 0.13 | 1.04 | 1.04 | 91 | 1016.7 |
| 20260508084229 | 22 | 44 | 3.2 | 4.8 | 0.18 | 1.02 | 1.02 | 92 | 1016.5 |
| 20260508083727 | 22 | 343 | 1.6 | 3.2 | 0.00 | 0.99 | 0.99 | 92 | 1016.5 |
| 20260508083225 | 22 | 274 | 9.7 | 11.3 | 0.00 | 0.99 | 0.99 | 92 | 1016.4 |
| 20260508082719 | 22 | 307 | 11.3 | 20.9 | 0.13 | 0.99 | 0.99 | 92 | 1016.5 |
| 20260508082217 | 22 | 304 | 4.8 | 9.7 | 0.61 | 0.99 | 0.99 | 92 | 1016.3 |
| 20260508081714 | 22 | 317 | 8.0 | 16.1 | 0.61 | 0.97 | 0.97 | 92 | 1016.1 |
| 20260508081210 | 22 | 43 | 6.4 | 9.7 | 0.13 | 0.89 | 0.89 | 92 | 1016.4 |
| 20260508080708 | 22 | 282 | 9.7 | 11.3 | 0.18 | 0.86 | 0.86 | 91 | 1016.3 |
| 20260508080206 | 22 | 321 | 6.4 | 9.7 | 0.18 | 0.86 | 0.86 | 91 | 1016.5 |
| 20260508075702 | 22 | 95 | 0.0 | 1.6 | 0.00 | 0.84 | 0.84 | 92 | 1016.3 |
| 20260508075159 | 22 | 286 | 4.8 | 9.7 | 0.13 | 0.84 | 0.84 | 91 | 1016.2 |
| 20260508074657 | 22 | 356 | 3.2 | 9.7 | 0.13 | 0.84 | 0.84 | 91 | 1016.3 |
| 20260508074154 | 22 | 289 | 3.2 | 6.4 | 0.18 | 0.81 | 0.81 | 91 | 1016.3 |
| 20260508073650 | 22 | 12 | 1.6 | 4.8 | 0.66 | 0.81 | 0.81 | 91 | 1016.3 |
| 20260508073149 | 22 | 322 | 3.2 | 3.2 | 0.66 | 0.76 | 0.76 | 91 | 1016.4 |
| 20260508072644 | 22 | 306 | 6.4 | 9.7 | 0.30 | 0.71 | 0.71 | 91 | 1016.2 |
| 20260508072141 | 22 | 88 | 1.6 | 9.7 | 0.13 | 0.66 | 0.66 | 91 | 1016.4 |
| 20260508071639 | 22 | 290 | 8.0 | 11.3 | 0.30 | 0.66 | 0.66 | 90 | 1016.2 |
| 20260508071137 | 22 | 290 | 6.4 | 11.3 | 0.18 | 0.64 | 0.64 | 90 | 1016.1 |
| 20260508070634 | 22 | 22 | 1.6 | 3.2 | 0.13 | 0.61 | 0.61 | 90 | 1016.1 |
| 20260508070133 | 22 | 355 | 6.4 | 11.3 | 0.61 | 0.61 | 0.61 | 89 | 1016.0 |
| 20260508065630 | 22 | 305 | 3.2 | 6.4 | 0.79 | 0.58 | 0.58 | 89 | 1016.2 |
| 20260508065127 | 23 | 50 | 3.2 | 9.7 | 0.79 | 0.51 | 0.51 | 89 | 1016.2 |
| 20260508064625 | 23 | 73 | 0.0 | 0.0 | 0.48 | 0.46 | 0.46 | 89 | 1016.2 |
| 20260508064123 | 23 | 195 | 1.6 | 3.2 | 0.13 | 0.38 | 0.38 | 88 | 1016.3 |
| 20260508063620 | 23 | 95 | 0.0 | 0.0 | 0.30 | 0.38 | 0.38 | 88 | 1016.1 |
| 20260508063119 | 23 | 56 | 1.6 | 4.8 | 0.89 | 0.36 | 0.36 | 87 | 1016.3 |
| 20260508062615 | 23 | 80 | 0.0 | 0.0 | 1.27 | 0.30 | 0.30 | 87 | 1016.4 |
| 20260508062112 | 23 | 100 | 0.0 | 1.6 | 0.89 | 0.18 | 0.18 | 86 | 1016.9 |
| 20260508061609 | 23 | 89 | 0.0 | 0.0 | 0.30 | 0.08 | 0.08 | 85 | 1016.7 |
| 20260508061106 | 23 | 58 | 1.6 | 1.6 | 0.18 | 0.03 | 0.03 | 85 | 1016.9 |
| 20260508060603 | 23 | 60 | 1.6 | 3.2 | 0.18 | 0.03 | 0.03 | 84 | 1016.7 |
| 20260508060100 | 23 | 92 | 1.6 | 1.6 | 0.00 | 0.00 | 0.00 | 85 | 1016.7 |
| 20260508055556 | 23 | 108 | 0.0 | 0.0 | 0.00 | 0.00 | 0.00 | 85 | 1016.9 |
| 20260508055053 | 23 | 104 | 0.0 | 0.0 | 0.00 | 0.00 | 0.00 | 85 | 1016.8 |
| 20260508054549 | 23 | 37 | 0.0 | 4.8 | 0.00 | 0.00 | 0.00 | 84 | 1016.8 |
| 20260508054047 | 24 | 47 | 1.6 | 4.8 | 0.00 | 0.00 | 0.00 | 84 | 1016.8 |
| 20260508053543 | 23 | 45 | 3.2 | 3.2 | 0.00 | 0.00 | 0.00 | 84 | 1017.0 |
| 20260508053042 | 23 | 63 | 1.6 | 4.8 | 0.00 | 0.00 | 0.00 | 83 | 1016.9 |
| 20260508052539 | 24 | 79 | 3.2 | 6.4 | 0.00 | 0.00 | 0.00 | 83 | 1017.1 |
| 20260508052035 | 24 | 101 | 3.2 | 9.7 | 0.00 | 0.00 | 0.00 | 83 | 1017.0 |
| 20260508051532 | 25 | 78 | 1.6 | 3.2 | 0.00 | 0.00 | 0.00 | 84 | 1017.2 |
| 20260508051027 | 25 | 100 | 0.0 | 9.7 | 0.00 | 0.00 | 0.00 | 81 | 1017.0 |
| 20260508050524 | 26 | 95 | 6.4 | 9.7 | 0.00 | 0.00 | 0.00 | 78 | 1017.0 |
| 20260508050021 | 26 | 85 | 3.2 | 4.8 | 0.00 | 0.00 | 0.00 | 76 | 1017.0 |
| 20260508045517 | 26 | 71 | 1.6 | 4.8 | 0.00 | 0.00 | 0.00 | 76 | 1016.9 |
| 20260508045015 | 26 | 57 | 0.0 | 4.8 | 0.00 | 0.00 | 0.00 | 75 | 1017.0 |
| 20260508044512 | 26 | 77 | 1.6 | 3.2 | 0.00 | 0.00 | 0.00 | 75 | 1016.8 |
| 20260508044008 | 26 | 61 | 3.2 | 6.4 | 0.00 | 0.00 | 0.00 | 74 | 1016.9 |
| 20260508043505 | 26 | 90 | 4.8 | 12.9 | 0.00 | 0.00 | 0.00 | 74 | 1016.8 |
| 20260508043001 | 27 | 61 | 1.6 | 11.3 | 0.00 | 0.00 | 0.00 | 70 | 1016.8 |
| 20260508042459 | 27 | 117 | 3.2 | 6.4 | 0.00 | 0.00 | 0.00 | 68 | 1017.0 |
| 20260508041955 | 27 | 62 | 1.6 | 3.2 | 0.00 | 0.00 | 0.00 | 68 | 1016.8 |
| 20260508041452 | 28 | 128 | 4.8 | 6.4 | 0.00 | 0.00 | 0.00 | 67 | 1017.1 |
| 20260508040949 | 29 | 120 | 4.8 | 6.4 | 0.00 | 0.00 | 0.00 | 63 | 1016.8 |
| 20260508040446 | 29 | 81 | 0.0 | 1.6 | 0.00 | 0.00 | 0.00 | 62 | 1017.0 |
| 20260508035944 | 28 | 49 | 1.6 | 4.8 | 0.00 | 0.00 | 0.00 | 64 | 1017.0 |
| 20260508035440 | 28 | 71 | 3.2 | 6.4 | 0.00 | 0.00 | 0.00 | 62 | 1017.0 |
| 20260508034937 | 28 | 346 | 3.2 | 9.7 | 0.00 | 0.00 | 0.00 | 62 | 1017.0 |
| 20260508034435 | 29 | 98 | 3.2 | 6.4 | 0.00 | 0.00 | 0.00 | 63 | 1017.1 |
| 20260508033931 | 29 | 96 | 0.0 | 1.6 | 0.00 | 0.00 | 0.00 | 63 | 1017.0 |
| 20260508033429 | 29 | 45 | 0.0 | 3.2 | 0.00 | 0.00 | 0.00 | 64 | 1017.2 |
| 20260508032926 | 28 | 328 | 1.6 | 1.6 | 0.00 | 0.00 | 0.00 | 67 | 1017.3 |
| 20260508032424 | 28 | 101 | 0.0 | 0.0 | 0.00 | 0.00 | 0.00 | 68 | 1017.2 |
| 20260508031920 | 29 | 128 | 0.0 | 4.8 | 0.00 | 0.00 | 0.00 | 66 | 1017.3 |
| 20260508031418 | 29 | 13 | 0.0 | 1.6 | 0.00 | 0.00 | 0.00 | 66 | 1017.2 |
| 20260508030913 | 30 | 88 | 0.0 | 0.0 | 0.00 | 0.00 | 0.00 | 66 | 1017.0 |
| 20260508030411 | 30 | 95 | 1.6 | 3.2 | 0.00 | 0.00 | 0.00 | 62 | 1017.0 |
| 20260508025908 | 30 | 17 | 0.0 | 3.2 | 0.00 | 0.00 | 0.00 | 66 | 1017.1 |
| 20260508025404 | 30 | 135 | 6.4 | 6.4 | 0.00 | 0.00 | 0.00 | 64 | 1016.9 |
| 20260508024901 | 29 | 23 | 0.0 | 3.2 | 0.00 | 0.00 | 0.00 | 64 | 1017.1 |
| 20260508024358 | 28 | 113 | 1.6 | 1.6 | 0.00 | 0.00 | 0.00 | 63 | 1016.9 |
| 20260508023854 | 28 | 52 | 0.0 | 3.2 | 0.00 | 0.00 | 0.00 | 66 | 1017.0 |
| 20260508023352 | 28 | 126 | 4.8 | 4.8 | 0.00 | 0.00 | 0.00 | 63 | 1017.1 |
| 20260508022848 | 28 | 87 | 3.2 | 4.8 | 0.00 | 0.00 | 0.00 | 62 | 1017.1 |
| 20260508022344 | 28 | 110 | 6.4 | 6.4 | 0.00 | 0.00 | 0.00 | 62 | 1017.1 |
| 20260508021841 | 28 | 94 | 4.8 | 6.4 | 0.00 | 0.00 | 0.00 | 61 | 1017.2 |
| 20260508021337 | 28 | 26 | 3.2 | 4.8 | 0.00 | 0.00 | 0.00 | 64 | 1017.3 |
| 20260508020833 | 27 | 52 | 0.0 | 4.8 | 0.00 | 0.00 | 0.00 | 66 | 1017.2 |
| 20260508020331 | 27 | 74 | 1.6 | 6.4 | 0.00 | 0.00 | 0.00 | 66 | 1017.2 |
| 20260508015828 | 27 | 53 | 1.6 | 4.8 | 0.00 | 0.00 | 0.00 | 64 | 1017.3 |
| 20260508015326 | 28 | 72 | 1.6 | 3.2 | 0.00 | 0.00 | 0.00 | 64 | 1017.2 |
| 20260508014822 | 27 | 73 | 1.6 | 3.2 | 0.00 | 0.00 | 0.00 | 65 | 1017.2 |
| 20260508014319 | 28 | 101 | 4.8 | 4.8 | 0.00 | 0.00 | 0.00 | 65 | 1017.4 |
| 20260508013814 | 28 | 49 | 3.2 | 9.7 | 0.00 | 0.00 | 0.00 | 63 | 1017.5 |
| 20260508013312 | 27 | 41 | 3.2 | 6.4 | 0.00 | 0.00 | 0.00 | 67 | 1017.3 |
| 20260508012809 | 27 | 35 | 4.8 | 12.9 | 0.00 | 0.00 | 0.00 | 69 | 1017.5 |
| 20260508012307 | 26 | 54 | 1.6 | 9.7 | 0.00 | 0.00 | 0.00 | 71 | 1017.5 |
| 20260508011804 | 27 | 71 | 3.2 | 6.4 | 0.00 | 0.00 | 0.00 | 71 | 1017.6 |
| 20260508011301 | 27 | 43 | 1.6 | 4.8 | 0.00 | 0.00 | 0.00 | 68 | 1017.6 |
| 20260508010758 | 27 | 16 | 3.2 | 6.4 | 0.00 | 0.00 | 0.00 | 66 | 1017.6 |
| 20260508010256 | 27 | 52 | 0.0 | 1.6 | 0.00 | 0.00 | 0.00 | 68 | 1017.4 |
| 20260508005752 | 27 | 103 | 0.0 | 1.6 | 0.00 | 0.00 | 0.00 | 68 | 1017.3 |
| 20260508005249 | 27 | 33 | 1.6 | 3.2 | 0.00 | 0.00 | 0.00 | 69 | 1017.3 |
| 20260508004744 | 27 | 93 | 1.6 | 3.2 | 0.00 | 0.00 | 0.00 | 67 | 1017.3 |